GFSMW_250_spd_060.txt.gz
Wind_Speed
18 22 50 64 59 56 56 56 52 50 51 59 55 59 54 56 61 63 60 66 65 67 71 69 70 72 70 61 65 69 62 64 65 59 56 58 56 56 56 58 58 60 64
22 20 25 55 66 62 63 62 57 58 57 58 59 61 58 57 64 62 68 72 73 74 69 66 70 70 70 62 60 61 63 58 54 53 54 55 54 55 59 61 61 63 65
19 20 19 25 41 60 74 67 69 63 59 57 57 63 60 73 69 69 72 69 68 68 68 69 64 65 63 63 63 63 54 52 54 54 56 58 60 59 60 61 61 62 65
15 21 23 22 24 27 33 51 68 70 69 68 64 63 56 55 60 70 70 67 67 70 67 65 66 61 63 62 56 55 58 56 55 59 58 59 63 64 62 66 63 63 63
14 15 21 24 20 22 23 22 26 35 44 49 52 57 51 42 42 42 52 66 67 55 59 53 51 56 64 59 54 57 58 58 62 61 60 62 67 68 68 65 61 63 71
18 14 16 20 26 21 20 21 20 23 25 27 30 30 31 31 31 34 37 40 43 46 52 59 54 59 57 58 58 58 60 63 62 61 59 57 64 63 60 54 67 74 76
22 18 15 15 22 27 25 27 24 22 21 24 27 28 25 27 30 32 35 35 37 39 44 48 52 56 55 54 57 56 59 58 57 58 58 57 52 52 58 69 75 77 80
30 23 19 16 13 22 29 25 27 29 27 27 25 25 26 27 30 31 33 38 39 42 46 48 50 51 51 49 48 51 52 55 56 49 46 51 58 64 69 75 78 79 80
29 32 24 18 16 14 24 35 32 29 28 32 33 35 34 32 34 38 40 40 42 42 44 47 48 47 47 48 50 53 50 46 47 52 55 60 66 71 74 77 78 78 76
25 27 28 25 18 14 16 20 32 40 38 36 34 34 36 37 39 37 38 40 42 43 46 49 51 55 54 57 58 56 55 55 59 59 62 68 73 72 73 81 78 77 74
24 26 27 30 25 18 15 15 19 23 31 46 41 39 40 40 41 43 46 47 49 48 51 53 53 50 47 48 51 57 60 64 61 67 67 69 71 78 78 73 69 68 64
28 24 26 24 25 21 21 18 16 20 23 25 34 42 46 49 50 52 49 48 47 47 50 48 48 45 51 54 52 59 59 63 68 68 70 78 75 67 61 54 54 58 57
27 27 24 26 25 24 23 22 18 16 17 24 27 31 34 37 39 38 37 38 41 40 39 44 41 48 54 57 55 53 63 66 72 75 79 71 55 50 54 58 57 59 60
28 26 26 26 26 29 30 29 24 21 18 16 20 27 29 31 34 36 37 36 34 37 41 45 47 54 57 55 58 61 66 70 74 73 63 59 57 61 63 62 61 61 64
36 31 26 26 27 30 29 35 34 28 25 22 19 19 19 20 25 29 30 33 36 41 44 46 49 51 53 52 56 61 61 64 64 63 57 59 64 67 66 67 67 66 68
39 38 33 32 28 32 29 28 35 32 30 28 25 24 25 24 25 27 29 32 30 34 38 39 42 45 50 55 56 55 53 57 61 63 68 70 70 68 70 71 73 73 71
43 43 37 36 36 36 28 27 30 32 33 33 33 31 26 26 29 30 31 32 30 32 36 36 39 42 45 47 51 56 60 62 65 67 68 69 71 73 72 73 75 75 76
47 47 43 43 42 42 39 37 37 35 35 31 34 36 35 30 30 33 37 38 40 42 44 45 47 49 50 54 55 57 57 60 64 64 68 71 72 72 75 78 81 79 80
52 49 45 46 46 45 43 44 42 37 41 43 40 39 41 40 40 36 37 40 45 49 51 51 53 57 58 60 61 63 65 67 69 70 70 71 72 74 78 79 81 83 86
59 56 52 47 47 50 52 47 46 48 48 48 49 48 49 50 51 51 48 50 50 50 50 53 55 56 59 64 66 68 69 71 73 73 74 73 76 78 81 84 86 86 91
63 64 61 57 56 54 54 56 56 55 54 53 55 54 56 53 51 55 58 59 58 59 59 61 62 64 65 67 70 72 74 75 77 78 77 79 81 82 83 89 89 91 95
65 62 64 67 62 60 61 65 64 62 60 60 61 56 57 57 59 63 65 62 64 67 67 68 68 68 69 70 74 77 78 80 81 85 84 85 87 86 87 90 94 96 99
76 73 69 69 66 67 67 69 72 70 67 68 67 62 63 65 68 70 73 73 74 75 72 72 74 75 75 77 79 79 82 83 87 89 89 88 88 89 91 95 100 102 105
80 76 71 75 71 72 73 70 72 72 73 74 77 78 78 78 79 79 75 75 78 80 79 79 81 81 80 80 80 82 83 87 89 93 93 90 93 93 96 99 104 106 110
86 84 83 81 77 78 74 77 77 76 78 79 79 76 76 76 76 79 82 83 83 86 84 86 86 85 86 85 86 87 89 88 93 94 92 93 95 98 100 104 108 110 115
93 92 90 87 86 86 86 82 84 81 79 84 86 83 85 85 87 89 90 90 89 90 88 92 89 89 88 88 90 92 91 92 94 94 96 96 98 102 105 109 113 117 120

GFSMW_250_spd_066.txt.gz
Wind_Speed
21 32 38 46 49 44 47 49 42 43 34 38 42 47 48 42 38 48 50 48 43 43 42 38 39 44 46 48 50 52 56 57 58 62 61 60 59 52 51 52 52 47 52
10 20 33 33 46 52 52 47 51 44 52 39 39 45 44 38 35 42 39 49 48 41 38 36 40 46 47 51 53 56 61 64 65 66 66 58 52 54 52 51 50 53 50
9 8 20 35 34 52 55 57 53 49 50 48 44 45 41 46 41 42 40 45 51 56 57 54 52 52 57 56 58 60 59 56 54 50 50 45 52 50 52 53 52 52 52
18 8 9 20 33 35 48 56 59 60 56 51 46 49 53 47 49 48 45 42 43 44 49 51 54 57 61 60 59 59 51 47 51 47 47 51 49 51 53 53 52 50 57
21 17 8 7 21 31 33 39 56 57 63 64 62 56 58 55 53 49 55 51 55 51 49 53 58 55 56 63 59 53 49 48 49 49 50 50 51 53 52 54 56 60 55
16 20 19 13 7 20 29 28 31 37 47 60 55 62 63 59 59 59 57 54 55 60 63 59 58 55 53 48 48 47 47 46 49 51 54 54 52 50 49 52 50 45 43
16 21 23 20 13 6 19 27 26 24 27 32 34 40 45 45 55 52 54 50 52 58 52 51 48 45 45 46 47 46 45 48 52 58 57 46 47 49 50 53 54 54 48
17 17 22 22 16 12 4 16 25 23 25 25 23 24 25 28 31 33 36 36 35 33 33 33 34 38 41 44 47 51 51 48 45 44 44 47 50 49 49 48 46 47 46
18 19 22 20 19 14 13 8 11 24 28 28 28 26 24 24 28 32 34 34 34 34 33 33 37 42 45 49 50 49 51 45 47 49 52 52 50 51 54 51 46 47 48
18 18 22 19 16 15 12 11 9 8 21 25 27 31 32 32 32 32 36 35 38 39 42 46 48 49 53 52 51 50 51 50 50 51 51 49 59 61 60 54 48 49 52
21 21 22 20 18 15 14 14 9 9 8 12 28 37 37 35 35 36 38 39 38 39 42 43 46 46 50 50 49 51 50 52 54 53 50 51 50 43 43 42 58 60 58
32 29 25 20 19 19 16 13 15 11 8 7 8 11 19 30 40 46 43 40 45 43 42 42 44 48 48 50 51 53 54 55 53 52 52 43 38 40 46 49 56 59 62
33 35 34 28 25 20 22 20 16 17 16 14 12 11 10 12 16 21 27 34 46 53 49 49 51 55 55 57 53 53 50 48 48 44 42 40 37 42 43 52 55 60 66
37 35 35 33 32 26 23 23 24 20 20 19 18 15 13 15 14 14 16 19 24 30 35 39 41 43 43 45 46 46 44 40 41 40 40 45 44 42 45 52 58 61 64
40 41 39 37 38 35 30 25 27 29 26 25 23 21 21 18 18 18 18 18 19 19 21 24 27 28 30 31 29 31 33 33 36 39 39 42 47 49 54 58 64 65 67
44 44 44 44 42 45 42 34 31 32 33 33 31 30 29 29 27 26 27 27 23 25 26 26 29 31 33 35 32 34 32 36 38 41 43 47 50 54 57 61 65 68 72
48 46 46 49 50 49 47 46 40 34 37 39 38 36 36 38 35 34 33 36 36 36 34 35 37 40 42 45 45 46 46 47 47 50 52 54 55 58 62 67 70 73 74
50 49 50 49 50 53 51 47 45 44 45 45 44 42 41 39 43 43 42 40 43 44 41 46 46 46 49 52 53 53 54 57 57 57 63 65 61 63 68 71 75 79 80
58 58 56 52 54 54 56 55 52 51 51 50 51 49 45 44 43 46 49 48 51 52 53 53 55 56 57 58 59 63 63 64 64 65 73 73 72 73 75 80 81 87 85
59 59 58 56 56 59 62 61 58 57 56 57 56 54 55 52 50 52 54 57 59 59 57 57 57 60 65 67 67 68 71 68 72 76 78 77 76 78 82 85 90 88 95
69 66 65 63 65 65 66 67 64 62 58 59 60 57 58 58 58 61 63 64 67 65 65 64 65 66 68 67 71 73 75 77 79 79 80 82 84 88 90 89 93 94 96
79 77 76 74 75 71 70 69 65 66 66 66 64 65 65 65 63 64 67 68 67 72 71 70 71 72 74 73 71 73 76 81 84 85 88 89 91 96 95 99 98 97 100
84 84 82 80 78 72 72 73 70 68 68 68 68 69 70 68 68 71 74 74 73 73 76 76 76 79 78 79 79 81 84 88 88 90 94 93 96 96 102 101 100 102 103
87 83 79 80 77 73 72 74 72 72 74 73 73 73 72 71 71 72 74 75 79 81 81 82 84 87 88 89 90 88 91 92 92 93 100 98 96 102 103 103 103 104 106
73 72 76 75 77 79 79 79 79 78 77 78 79 78 78 77 77 79 81 83 85 86 87 89 92 94 95 96 97 97 96 98 99 99 98 104 104 103 104 104 106 106 108
83 82 81 83 85 87 88 87 88 86 84 83 83 84 86 87 87 89 91 92 94 94 98 99 98 98 99 101 99 102 103 102 102 100 102 104 105 108 108 108 109 110 112

GFSMW_250_spd_072.txt.gz
Wind_Speed
19 18 15 19 36 31 35 46 41 39 38 26 41 46 44 42 49 41 43 38 39 37 31 30 29 30 25 30 29 33 40 40 35 40 41 44 45 46 49 52 57 60 62
18 18 12 14 28 40 42 49 42 44 42 33 29 48 49 49 47 42 48 45 39 41 35 35 34 33 32 34 34 37 40 36 39 45 47 48 55 59 58 60 63 66 51
14 17 17 8 15 37 40 54 49 44 51 40 36 40 45 48 52 51 48 46 45 42 43 39 35 34 36 34 38 39 39 40 46 48 50 54 60 62 65 67 63 49 46
12 13 19 17 10 16 49 49 56 56 43 50 42 42 44 50 49 48 47 44 39 44 44 48 50 50 51 51 50 49 46 53 54 57 55 58 63 64 63 58 54 45 45
8 9 15 19 16 10 18 55 57 57 56 45 42 46 44 48 52 53 55 54 51 45 47 46 51 51 53 48 51 47 53 55 57 56 56 58 61 63 62 58 43 45 45
14 12 14 18 20 14 8 14 50 58 61 57 59 52 45 49 56 55 56 59 53 53 50 49 45 44 47 49 54 54 54 58 59 61 62 61 64 62 56 43 43 48 56
18 17 15 17 18 16 15 10 10 41 55 63 62 61 57 56 55 55 57 57 56 58 59 53 51 54 52 55 56 59 60 63 66 69 68 64 65 57 47 45 54 50 50
23 20 17 16 19 14 15 14 12 6 26 44 49 66 66 64 63 61 61 58 56 62 60 59 60 61 62 63 61 64 65 66 70 67 66 60 52 45 51 52 55 52 50
28 22 21 18 17 18 13 13 15 12 9 12 28 36 40 50 57 62 63 68 65 65 65 65 63 69 67 68 66 67 66 58 53 49 42 39 45 54 58 61 56 53 53
29 28 26 20 21 18 16 12 11 11 10 9 9 16 27 30 31 33 33 41 48 51 48 50 47 51 49 45 45 40 38 38 42 46 50 56 58 59 58 56 57 61 59
30 24 25 25 27 18 20 25 18 12 7 9 10 8 9 17 22 23 24 28 31 31 34 38 41 40 40 38 40 40 44 46 46 48 48 52 57 58 58 60 61 63 65
36 35 35 24 29 32 25 24 19 20 17 15 9 9 8 10 12 16 22 28 34 36 35 36 39 45 46 44 48 51 54 54 55 55 58 58 62 65 63 64 64 62 62
39 34 30 33 27 23 23 21 21 25 21 19 19 15 10 9 10 11 16 17 18 21 26 34 41 45 47 47 50 52 54 56 58 57 57 59 62 62 63 58 54 50 46
41 40 36 33 34 34 32 31 33 26 24 24 24 24 23 22 21 17 15 14 14 15 16 17 20 23 28 33 39 42 46 51 54 52 43 40 40 38 38 38 40 44 45
45 44 40 38 37 37 37 35 32 34 30 29 30 29 27 27 26 26 24 22 22 22 23 26 25 22 22 24 26 28 27 27 30 33 35 35 37 39 39 42 46 48 51
48 44 45 48 46 42 42 41 38 38 36 38 40 39 36 36 36 33 29 30 33 34 33 33 33 30 31 32 36 35 34 35 35 36 40 42 44 47 49 53 55 57 57
47 45 46 47 47 47 45 45 42 43 43 43 42 44 44 46 41 39 41 39 39 40 40 40 39 39 40 43 45 45 44 44 43 45 48 46 48 53 56 57 59 60 63
49 49 50 52 50 49 48 48 49 49 47 48 49 47 47 45 47 46 43 42 42 44 44 43 43 47 49 49 49 48 50 50 53 53 53 55 57 62 63 65 66 69 70
58 57 56 57 56 54 54 51 53 53 54 52 53 53 53 54 55 50 53 54 52 50 52 56 53 49 50 52 56 57 58 58 57 59 59 59 61 63 66 69 70 73 74
59 58 59 60 60 61 59 57 57 57 61 63 62 61 61 59 59 59 60 58 54 55 57 62 63 63 64 64 67 68 68 68 67 67 66 68 69 68 71 73 73 77 79
66 71 67 68 69 65 62 60 63 65 65 64 62 61 61 61 62 64 63 65 66 65 64 66 67 69 74 74 73 73 75 76 76 75 75 75 77 78 77 78 82 86 89
71 74 71 72 70 65 64 64 65 66 67 68 66 69 71 69 69 71 69 70 70 70 73 74 75 76 76 77 76 78 80 82 82 82 82 82 83 82 83 85 88 92 95
75 76 77 77 77 78 77 78 79 80 81 80 76 74 77 79 78 78 76 79 78 78 79 82 85 78 79 79 80 80 81 82 81 84 86 87 90 90 91 93 96 99 101
82 83 83 84 82 83 85 84 85 84 84 81 82 83 84 87 88 87 88 90 90 91 90 89 82 77 77 73 80 76 80 83 83 85 89 92 95 99 101 104 105 108 112
84 82 84 85 86 86 87 86 84 83 85 89 90 91 91 92 93 93 95 97 99 101 98 89 88 88 85 82 80 81 94 89 91 93 96 100 105 108 111 112 115 119 121
95 93 94 92 92 93 93 95 98 101 100 102 102 103 104 106 106 107 107 103 98 94 92 91 87 83 83 90 87 90 96 100 103 105 107 111 113 115 118 119 112 113 111

GFSMW_250_spd_075.txt.gz
Wind_Speed
14 16 20 22 14 32 27 27 25 35 37 41 33 43 59 57 56 59 54 41 40 31 34 30 30 33 33 31 28 28 31 31 32 35 33 37 37 42 43 45 46 50 50
12 11 16 19 16 24 34 26 28 40 41 37 28 37 48 47 56 60 61 51 39 35 30 33 37 40 37 31 33 29 31 33 37 39 38 41 44 45 46 50 54 52 56
11 11 14 13 13 14 35 34 33 46 45 35 31 33 41 42 45 44 43 40 40 41 41 37 35 40 33 34 34 38 40 40 40 40 44 45 48 48 55 54 54 56 59
15 9 11 11 11 9 19 39 40 51 48 43 39 33 39 37 39 46 47 50 53 39 44 47 43 43 48 42 36 36 35 37 40 44 51 54 54 55 58 55 57 60 63
17 11 10 12 12 15 12 16 48 48 55 43 48 41 35 42 50 50 48 49 55 60 51 49 53 51 51 50 51 53 53 50 51 52 54 56 57 57 58 60 60 65 63
19 16 11 11 13 14 15 11 21 50 55 52 47 45 42 46 44 45 55 53 57 57 52 52 46 44 46 49 49 50 53 56 55 57 58 59 60 61 64 63 65 63 60
21 17 14 11 14 13 13 12 7 20 57 62 56 54 45 45 51 47 47 53 53 54 56 56 55 54 54 53 57 56 54 54 57 58 60 63 65 68 67 69 66 56 58
28 24 18 15 15 17 11 13 11 7 12 49 65 65 65 54 53 52 50 51 53 57 60 60 62 61 62 63 64 67 66 65 63 64 67 68 70 70 73 70 61 51 46
32 30 25 20 16 16 14 8 11 14 9 7 21 59 62 61 61 61 57 56 54 58 61 62 64 66 68 68 69 66 66 69 71 71 70 71 68 58 51 44 44 46 49
34 34 29 24 23 21 17 17 10 12 14 10 6 9 23 45 60 66 68 66 64 62 63 65 68 69 69 69 70 73 73 72 77 74 65 54 50 51 52 53 53 50 51
34 32 30 25 28 26 23 21 17 19 8 12 11 8 9 11 21 32 42 51 57 58 53 57 62 63 62 62 63 63 57 53 52 52 52 55 53 51 51 53 53 57 58
31 31 30 27 25 22 22 25 27 22 13 14 16 14 11 8 10 13 16 21 27 34 39 41 43 41 41 43 45 46 47 49 48 48 49 51 52 54 55 54 58 59 62
31 31 32 33 32 31 31 21 20 21 20 19 20 18 20 15 15 13 12 12 16 19 19 22 27 32 36 41 46 48 52 56 56 57 58 58 58 60 61 63 63 62 59
35 34 36 39 36 32 30 31 32 29 28 28 32 25 22 25 25 23 22 22 20 19 19 19 19 20 22 26 28 30 35 38 42 46 50 51 51 50 50 46 46 45 44
42 41 38 37 34 35 37 36 34 32 31 31 32 32 30 27 29 29 29 30 31 30 28 26 26 30 30 30 29 29 27 26 28 31 34 36 38 39 41 43 47 47 46
47 45 42 39 39 41 40 42 40 39 38 39 39 37 38 39 40 40 40 39 38 39 40 41 39 37 38 38 38 38 37 39 41 42 43 43 44 47 49 51 52 52 54
47 48 49 45 43 45 46 46 46 44 42 40 37 38 41 42 42 43 44 45 46 46 46 46 48 49 48 48 47 46 46 48 49 50 52 51 53 55 57 60 60 59 60
45 47 50 51 51 50 51 50 50 51 51 50 46 42 43 45 46 47 48 48 48 49 48 50 50 50 53 52 54 55 53 51 52 56 60 60 62 63 66 68 68 70 71
49 50 52 53 54 57 57 55 55 54 53 51 49 47 48 48 50 54 55 55 56 55 55 56 54 52 56 59 62 60 60 61 61 60 63 67 70 71 73 75 76 78 78
50 53 56 55 54 56 58 58 54 54 54 54 54 53 54 54 55 58 62 63 60 61 60 59 58 54 57 66 65 66 67 64 65 68 70 76 73 74 77 80 82 84 86
48 53 55 57 58 59 59 57 60 61 60 61 63 62 59 60 59 62 65 64 62 66 64 66 66 69 64 63 67 72 73 74 74 75 77 80 79 79 80 82 86 88 87
55 56 58 59 60 61 63 65 68 69 71 70 68 64 61 58 57 60 66 72 73 74 71 72 76 72 74 70 72 74 77 81 84 88 83 75 80 83 83 83 89 83 89
63 64 66 66 65 64 65 65 67 68 69 70 68 69 72 74 75 75 77 76 74 73 74 75 78 79 79 74 77 80 86 91 96 92 81 80 77 80 87 82 75 70 90
67 67 70 70 71 72 71 71 72 73 75 77 80 80 81 82 82 81 82 77 76 78 82 84 85 88 90 91 92 95 99 100 81 78 85 80 74 65 85 93 82 87 102
72 74 74 76 77 78 80 82 85 86 88 87 87 85 84 84 84 84 83 84 87 89 91 96 98 101 100 102 103 105 103 92 96 96 86 80 75 79 92 105 107 111 113
84 86 85 85 87 90 91 90 91 92 92 91 91 96 95 95 97 99 100 101 101 104 107 108 101 100 99 99 102 98 99 97 92 84 86 95 92 92 107 103 106 110 120